Weather in Dolgorukovo

Russia / Penza Oblast     52°38′03″N   44°04′17″E
temp.,
°C
wind,
m/s
gust,
m/s
humid.,
%
clouds,
%
prec.,
mm/h
press.,
hPa
HPBL,
m
27 february, sat
sat2700:00+1w61398100 0.1 1003504
03:00+1w6139192 0.1 1004549
06:00+1w71396100 0.0 1002699
09:000w71297100 0.1 1001775
12:00+1w7129997 0.1 1001721
15:00−2wnw7119598 0.7 1002827
18:00−8nw71291100 0.3 1005641
21:00−11nnw6128998 0.3 1009639
28 february, sun
sun2800:00−13nnw51192100 0.0 1011461
03:00−15nw4109492 0.0 1012282
06:00−17nw499523 0.0 1014205
09:00−15nnw499312 0.0 1014349
12:00−12nnw479076 0.0 1015434
15:00−11nw469188 0.0 1016481
18:00−13nw239599 0.0 101645
21:00−14nnw239697 0.1 101921
1 march, mon
mon100:00−15nnw239620 0.0 102020
03:00−16nnw239510 0.0 102220
06:00−17nnw23950 0.0 102321
09:00−15nnw23940 0.0 1025106
12:00−11nw238928 0.0 1025264
15:00−10wnw359360 0.0 1025301
18:00−12w339645 0.0 102421
21:00−11wsw349756 0.1 102475
2 march, tue
tue200:00−7wsw5129599 0.1 1021349
03:00−4wsw71394100 0.2 1018524
06:00−3wsw81595100 0.8 1013572
09:00−2wsw81496100 1.9 1010700
12:000w81399100 1.2 1007782
15:000nw71291100 1.6 1007799
18:00−1nw6139172 0.1 1008568
21:00−5wnw5119351 0.2 1009246
3 march, wed
wed300:00−4wnw6129584 0.1 1008423
03:00−3nw6129488 0.1 1009508
06:00−3nw6119295 0.1 1010728
09:00−4nw6119296 0.3 1011729
12:00−3nw71089100 0.1 1012906
15:00−2nw7119099 0.2 1013922
18:00−5nw6138791 0.1 1014460
21:00−6nw5119477 0.1 1016319